TimeAST,TemperatureF,Dew PointF,Humidity,Sea Level PressureIn,VisibilityMPH,Wind Direction,Wind SpeedMPH,Gust SpeedMPH,PrecipitationIn,Events,Conditions,WindDirDegrees,DateUTC
12:00 AM,59,52,70,29.93,6,Calm,Calm,,,,,,2013-12-03 21:00:00
12:00 AM,59.0,51.8,77,29.92,-9999.0,Calm,Calm,-,N/A,,Clear,0,2013-12-03 21:00:00
1:00 AM,60.8,51.8,72,29.92,-9999.0,South,5.8,-,N/A,,Clear,170,2013-12-03 22:00:00
2:00 AM,59.0,55.4,88,29.89,-9999.0,Variable,2.3,-,N/A,,Clear,0,2013-12-03 23:00:00
3:00 AM,58,57,96,29.91,6,WSW,6.9,,,,,240,2013-12-04 00:00:00
3:00 AM,59.0,57.2,94,29.89,-9999.0,WSW,6.9,-,N/A,,Clear,240,2013-12-04 00:00:00
4:00 AM,57.2,48.2,72,29.89,-9999.0,West,4.6,-,N/A,,Clear,260,2013-12-04 01:00:00
5:00 AM,57.2,46.4,67,29.92,-9999.0,Variable,2.3,-,N/A,,Clear,0,2013-12-04 02:00:00
6:00 AM,60,41,38,29.94,6,,2.3,,,,,,2013-12-04 03:00:00
6:00 AM,60.8,41.0,48,29.92,-9999.0,Variable,2.3,-,N/A,,Clear,0,2013-12-04 03:00:00
7:00 AM,59.0,42.8,55,29.95,-9999.0,Calm,Calm,-,N/A,,Clear,0,2013-12-04 04:00:00
8:00 AM,64.4,50.0,59,29.98,-9999.0,Variable,2.3,-,N/A,,Clear,0,2013-12-04 05:00:00
9:00 AM,69,45,30,29.99,6,South,6.9,,,,,190,2013-12-04 06:00:00
9:00 AM,69.8,44.6,40,29.98,-9999.0,South,6.9,-,N/A,,Clear,190,2013-12-04 06:00:00
10:00 AM,75.2,37.4,25,29.98,-9999.0,South,9.2,-,N/A,,Clear,180,2013-12-04 07:00:00
11:00 AM,77.0,41.0,28,29.95,-9999.0,South,10.4,-,N/A,,Clear,180,2013-12-04 08:00:00
12:00 PM,77,46,23,29.93,6,South,9.2,,,,Scattered Clouds,180,2013-12-04 09:00:00
12:00 PM,77.0,46.4,34,29.92,-9999.0,South,9.2,-,N/A,,Clear,180,2013-12-04 09:00:00
1:00 PM,77.0,44.6,32,29.89,-9999.0,South,9.2,-,N/A,,Clear,180,2013-12-04 10:00:00
2:00 PM,78.8,46.4,32,29.89,-9999.0,South,9.2,-,N/A,,Clear,180,2013-12-04 11:00:00
3:00 PM,79,48,23,29.88,6,ESE,9.2,,,,Scattered Clouds,120,2013-12-04 12:00:00
3:00 PM,78.8,48.2,34,29.86,-9999.0,ESE,9.2,-,N/A,,Clear,120,2013-12-04 12:00:00
4:00 PM,77.0,50.0,39,29.86,-9999.0,SSE,9.2,-,N/A,,Clear,150,2013-12-04 13:00:00
5:00 PM,75.2,50.0,41,29.89,-9999.0,SSE,9.2,-,N/A,,Clear,160,2013-12-04 14:00:00
6:00 PM,72,55,46,29.90,6,SE,8.1,,,,,130,2013-12-04 15:00:00
6:00 PM,71.6,55.4,57,29.89,-9999.0,SE,8.1,-,N/A,,Clear,130,2013-12-04 15:00:00
7:00 PM,71.6,57.2,60,29.92,-9999.0,East,9.2,-,N/A,,Clear,90,2013-12-04 16:00:00
8:00 PM,69.8,55.4,60,29.92,-9999.0,East,8.1,-,N/A,,Clear,100,2013-12-04 17:00:00
9:00 PM,70,55,50,29.94,6,East,8.1,,,,,100,2013-12-04 18:00:00
9:00 PM,69.8,55.4,60,29.92,-9999.0,East,8.1,-,N/A,,Clear,100,2013-12-04 18:00:00
10:00 PM,68.0,59.0,73,29.92,-9999.0,East,6.9,-,N/A,,Clear,100,2013-12-04 19:00:00
11:00 PM,68.0,59.0,73,29.92,-9999.0,East,9.2,-,N/A,,Clear,100,2013-12-04 20:00:00